GBMIZ EGBJ-ZZZZ

Flight info

Callsign GBMIZ
Flight time N/A
Altitude 2000
Route VFR HIGHNAM HUNTLEY ROSSONWYE
Aircraft R44/L-VGD/C

Departure

Time 2026-04-22 13:06
Airport Gloucestershire Airport (EGBJ)

Arrival

Time N/A
Airport ZZZZ
Time Latitude Longitude Altitude Speed Heading
2026-04-22 13:00 51.89298 -2.15883 91 ft 0 kts 269°
2026-04-22 13:05 51.89298 -2.15894 91 ft 8 kts 269°
2026-04-22 13:05 51.89374 -2.16170 154 ft 48 kts 333°
2026-04-22 13:05 51.89546 -2.16881 241 ft 85 kts 277°
2026-04-22 13:05 51.89628 -2.17968 270 ft 108 kts 269°
2026-04-22 13:06 51.89641 -2.18738 346 ft 105 kts 267°
2026-04-22 13:06 51.89689 -2.19924 517 ft 105 kts 270°
2026-04-22 13:06 51.89650 -2.21125 681 ft 110 kts 248°
2026-04-22 13:06 51.89354 -2.22254 869 ft 110 kts 229°
2026-04-22 13:07 51.88911 -2.23300 863 ft 119 kts 220°
2026-04-22 13:07 51.88340 -2.24271 841 ft 115 kts 208°
2026-04-22 13:07 51.87813 -2.25222 913 ft 115 kts 219°
2026-04-22 13:07 51.87441 -2.26419 895 ft 125 kts 241°
2026-04-22 13:08 51.87245 -2.27790 904 ft 126 kts 252°
2026-04-22 13:08 51.87094 -2.29161 1041 ft 122 kts 256°
2026-04-22 13:08 51.87014 -2.30535 1094 ft 123 kts 265°
2026-04-22 13:08 51.86983 -2.31907 1153 ft 125 kts 266°
2026-04-22 13:09 51.86977 -2.33282 1229 ft 122 kts 273°
2026-04-22 13:09 51.87095 -2.34689 1248 ft 127 kts 274°
2026-04-22 13:09 51.87173 -2.36077 1448 ft 123 kts 270°
2026-04-22 13:09 51.87217 -2.37528 1515 ft 133 kts 262°
2026-04-22 13:10 51.86958 -2.38885 1682 ft 121 kts 221°
2026-04-22 13:10 51.86635 -2.40149 1704 ft 130 kts 264°
2026-04-22 13:10 51.86916 -2.41550 1744 ft 128 kts 300°
2026-04-22 13:10 51.87264 -2.42785 2046 ft 120 kts 303°
2026-04-22 13:11 51.87693 -2.43987 2126 ft 125 kts 306°
2026-04-22 13:11 51.88132 -2.45178 2222 ft 125 kts 303°
2026-04-22 13:11 51.88489 -2.46489 2161 ft 129 kts 295°
2026-04-22 13:11 51.88811 -2.47871 2148 ft 131 kts 290°
2026-04-22 13:12 51.89073 -2.49257 2150 ft 129 kts 288°
2026-04-22 13:12 51.89310 -2.50684 2166 ft 133 kts 283°
2026-04-22 13:12 51.89438 -2.52142 2320 ft 128 kts 270°
2026-04-22 13:12 51.89470 -2.53571 2381 ft 128 kts 268°
2026-04-22 13:13 51.89503 -2.54822 2366 ft 132 kts 268°
2026-04-22 13:14 51.89520 -2.55969 2427 ft 132 kts 270°
2026-04-22 13:14 51.89618 -2.57435 2395 ft 137 kts 275°
2026-04-22 13:14 51.89757 -2.58974 2322 ft 133 kts 277°
2026-04-22 13:14 51.89962 -2.60399 2316 ft 130 kts 289°
2026-04-22 13:15 51.90279 -2.61806 2162 ft 134 kts 291°
2026-04-22 13:15 51.90544 -2.63237 2166 ft 131 kts 286°
2026-04-22 13:15 51.90823 -2.64613 2150 ft 128 kts 296°
2026-04-22 13:15 51.91054 -2.66073 2041 ft 138 kts 278°
2026-04-22 13:16 51.91208 -2.67571 2014 ft 135 kts 279°
2026-04-22 13:16 51.91390 -2.69080 1829 ft 139 kts 281°
2026-04-22 13:16 51.91631 -2.70579 1659 ft 144 kts 282°
2026-04-22 13:16 51.91740 -2.71607 1584 ft 142 kts 274°